Simultaneous Nadir Overpasses (SNOs) Predictions

Prediction of SNOs between LANDSAT-8 and METOP-A Satellite Orbit:

Table of predicted SNOs for the next 14.0 days since TLE Epoch: 5/2/2014
Index Date (LANDSAT-8) Time (LANDSAT-8) Lat,Lon (LANDSAT-8) SZA (LANDSAT-8 ) Date (METOP-A) Time (METOP-A) Lat,Lon (METOP-A) SZA (METOP-A ) Distance(km) Time Diff (sec)
1 05/03/2014 03:05:27 -81.03, -8.53 112.58 05/03/2014 03:04:39 -81.03, -8.66 112.62 2.53 48
2 05/03/2014 03:54:52 81.06, 159.51 67.48 05/03/2014 03:55:17 81.07, 159.70 67.51 3.33 25
3 05/05/2014 22:39:38 -81.04, 57.93 113.38 05/05/2014 22:39:02 -81.04, 58.06 113.38 2.21 36
4 05/05/2014 23:29:03 81.06,-134.05 66.67 05/05/2014 23:29:41 81.06,-133.95 66.70 1.68 38
5 05/08/2014 18:13:48 -81.02, 124.19 114.18 05/08/2014 18:13:26 -81.02, 124.00 114.21 3.18 22
6 05/08/2014 19:03:12 81.07, -67.45 65.93 05/08/2014 19:04:03 81.07, -67.26 65.97 3.20 51
7 05/11/2014 13:47:57 -81.04,-169.05 114.86 05/11/2014 13:47:48 -81.04,-168.98 114.86 1.30 9
8 05/11/2014 14:37:22 81.07, -1.05 65.19 05/11/2014 14:38:27 81.07, -0.98 65.22 1.17 65
9 05/14/2014 08:32:41 81.00, 89.18 64.36 05/14/2014 08:31:33 81.01, 89.26 64.35 1.60 68




NCC Satellite Simultaneous Nadir Overpasses (SNOs) Prediction Service
